Wind_Speed
32 29 32 34 35 39 36 33 29 24 23 27 24 27 24 20 18 15 12 15 14 15 15 12 13 15 11 7 8 10 9 8 7
27 38 35 34 32 36 37 38 33 26 23 25 23 26 25 23 19 16 15 15 11 12 9 11 12 16 9 8 9 8 8 7 10
26 30 37 33 35 32 35 36 36 29 24 24 21 22 26 23 22 18 16 14 11 9 7 12 15 14 12 11 8 3 7 9 9
31 34 40 39 39 43 32 35 38 35 29 28 25 21 24 23 22 21 19 15 11 8 8 9 11 15 14 14 12 9 10 7 10
33 37 42 44 38 37 35 35 36 39 33 31 27 24 22 24 22 22 20 19 15 12 9 10 8 15 15 14 11 12 11 10 11
25 31 35 38 42 34 35 34 42 39 37 33 32 25 23 24 23 22 22 19 17 14 12 12 10 11 14 14 13 14 12 10 9
5 22 38 41 44 39 39 38 43 40 36 35 34 25 26 27 25 23 18 17 15 13 10 10 11 9 10 11 15 15 13 11 6
24 9 17 34 36 43 43 43 43 40 39 39 36 27 27 29 28 24 24 21 22 20 19 15 10 10 13 13 13 14 15 13 9
32 31 15 15 32 39 42 41 41 37 37 33 29 29 32 32 28 27 24 27 22 24 24 23 19 16 15 16 15 16 12 13 13
8 22 28 4 18 31 37 42 42 41 40 36 36 30 36 32 29 29 28 25 25 20 26 22 22 21 17 15 17 17 14 13 12
18 21 7 4 14 19 26 29 34 35 33 33 26 34 31 31 27 28 30 25 23 25 25 25 26 23 22 17 20 16 14 14 15
12 12 10 7 8 7 6 23 23 27 31 31 30 30 27 25 26 32 25 21 22 22 23 21 20 20 18 21 22 17 16 11 12
8 7 5 5 8 5 2 10 12 19 22 25 24 25 21 19 23 26 18 16 14 12 14 15 14 15 16 18 20 21 16 14 10
7 7 7 7 7 6 4 5 14 11 14 23 24 24 24 25 19 17 15 14 14 13 14 14 14 15 15 13 14 16 14 12 12
6 7 5 6 7 8 9 7 6 9 11 13 12 14 14 13 13 13 13 12 12 10 10 12 15 14 12 12 10 10 10 9 8
4 6 8 8 9 12 12 10 7 6 6 8 13 19 18 16 16 16 16 12 12 10 12 13 13 13 11 10 10 9 10 11 11
9 8 8 9 11 12 13 11 8 9 9 6 6 11 11 13 14 16 18 18 17 16 16 15 15 15 14 10 6 7 9 9 9
11 13 13 9 11 13 15 12 11 11 10 8 9 11 12 11 10 9 5 8 12 12 14 15 14 13 11 8 4 6 7 7 7
14 13 14 15 16 13 12 11 10 10 10 9 7 8 8 6 6 6 6 3 1 3 5 6 7 9 12 8 7 7 6 6 9
13 13 11 14 15 14 12 10 9 9 8 8 8 8 8 6 7 8 6 4 2 5 7 6 5 7 7 9 11 11 13 16 17
Wind_Direction
201 194 192 183 184 192 195 197 195 194 193 201 204 210 216 215 221 225 234 230 228 229 226 219 208 219 233 224 247 218 236 226 211
198 207 203 196 183 191 200 201 198 203 200 199 203 208 216 218 220 224 217 209 202 221 229 225 227 219 218 210 210 223 230 222 214
214 205 208 202 201 192 201 204 206 208 210 202 202 205 210 218 216 210 211 210 222 244 251 232 235 241 228 189 209 215 209 225 202
199 197 206 206 209 206 196 207 210 212 211 209 208 204 209 214 216 216 216 220 234 245 235 231 217 220 207 209 204 219 226 224 227
187 198 203 203 207 201 201 206 206 212 208 210 215 214 211 216 216 223 227 225 230 240 236 216 208 209 214 215 214 235 235 231 232
185 197 205 205 211 206 201 205 207 205 204 210 210 214 221 211 208 218 222 228 228 225 230 225 221 214 223 228 238 248 240 235 237
330 217 208 207 208 200 199 200 203 204 203 207 204 210 221 218 212 208 213 215 214 223 236 243 235 245 234 235 228 229 232 232 220
51 41 201 199 203 203 198 200 206 208 213 206 210 211 219 223 222 212 215 217 227 232 238 241 239 246 243 241 243 244 235 233 235
43 35 2 222 206 209 208 206 207 208 204 204 204 212 225 226 225 221 222 224 218 222 227 233 231 231 241 245 245 245 249 246 238
34 9 355 268 214 213 209 210 213 216 214 223 219 228 215 217 221 223 220 228 236 248 245 222 228 227 239 253 262 251 248 247 249
91 106 295 264 241 218 209 213 219 222 219 210 226 207 214 218 219 223 232 232 238 252 240 237 227 247 252 241 258 246 253 251 248
76 108 122 145 182 192 216 216 213 222 218 231 211 206 218 219 225 230 227 242 249 244 241 236 241 240 245 246 237 240 249 270 265
49 47 54 86 90 83 356 217 234 205 216 218 213 216 221 224 227 228 234 229 230 226 226 226 226 231 233 237 249 252 243 259 258
53 55 63 58 69 105 111 130 181 184 222 228 226 222 223 216 205 206 211 218 218 223 228 229 218 210 214 229 237 246 249 250 250
57 56 64 83 103 106 111 141 127 146 185 193 181 211 223 169 173 182 190 197 190 185 192 208 215 220 225 229 237 242 250 251 247
76 78 88 103 101 97 95 102 116 176 136 143 167 198 206 181 188 191 186 192 202 199 198 206 211 216 225 232 246 238 227 224 223
115 116 100 100 105 103 102 101 113 111 106 124 178 193 194 204 189 181 184 193 192 201 201 210 222 222 221 216 222 226 222 222 217
124 117 119 120 106 101 101 103 103 110 113 125 138 139 132 146 150 142 143 188 196 201 205 199 191 194 200 186 185 198 200 203 217
118 114 111 107 98 101 107 113 113 111 116 124 136 139 142 134 131 124 123 130 139 193 183 183 175 194 195 212 227 227 235 256 278
129 123 118 109 107 106 103 103 103 112 123 129 130 134 126 117 120 113 93 90 195 234 255 262 250 232 219 232 242 252 267 285 289
Height
1522 1529 1533 1537 1540 1546 1551 1555 1560 1564 1567 1572 1574 1578 1581 1584 1586 1588 1589 1590 1592 1592 1593 1594 1595 1597 1598 1599 1601 1602 1603 1604 1605
1517 1522 1529 1533 1539 1543 1548 1552 1557 1561 1564 1568 1570 1573 1577 1579 1583 1585 1587 1588 1590 1591 1591 1593 1594 1595 1597 1597 1598 1599 1601 1602 1603
1512 1519 1525 1530 1535 1540 1544 1548 1553 1558 1562 1564 1568 1570 1573 1575 1577 1581 1584 1586 1587 1589 1590 1590 1592 1595 1596 1597 1597 1597 1598 1600 1601
1505 1513 1518 1525 1530 1534 1539 1543 1547 1553 1558 1562 1565 1568 1570 1572 1574 1577 1580 1583 1584 1586 1587 1587 1589 1592 1594 1596 1596 1596 1597 1598 1599
1497 1502 1512 1518 1526 1530 1534 1537 1542 1548 1553 1556 1560 1563 1566 1568 1570 1572 1576 1579 1581 1583 1585 1587 1588 1589 1591 1593 1595 1596 1596 1596 1596
1495 1498 1506 1512 1519 1524 1528 1533 1538 1542 1548 1553 1556 1560 1564 1566 1568 1570 1571 1576 1578 1580 1583 1585 1586 1587 1589 1591 1592 1594 1595 1595 1594
1498 1497 1498 1505 1511 1518 1523 1529 1534 1539 1544 1549 1554 1556 1561 1565 1566 1568 1570 1574 1577 1579 1581 1583 1584 1586 1587 1589 1589 1590 1591 1592 1593
1499 1502 1508 1508 1513 1518 1521 1526 1531 1536 1539 1543 1549 1552 1556 1561 1565 1566 1569 1572 1575 1578 1580 1581 1582 1583 1584 1586 1586 1588 1590 1591 1590
1506 1508 1510 1515 1510 1516 1519 1523 1527 1531 1536 1540 1543 1548 1552 1557 1561 1563 1566 1568 1570 1572 1573 1578 1579 1580 1580 1582 1584 1585 1587 1587 1587
1509 1505 1515 1517 1515 1517 1517 1521 1526 1529 1533 1535 1538 1540 1546 1551 1554 1559 1562 1565 1565 1567 1571 1571 1575 1576 1577 1580 1581 1582 1582 1583 1583
1515 1513 1523 1512 1516 1516 1516 1520 1525 1528 1530 1533 1534 1538 1541 1546 1550 1552 1557 1560 1562 1564 1566 1567 1569 1572 1573 1575 1578 1579 1579 1579 1580
1522 1522 1526 1523 1522 1517 1518 1517 1521 1525 1528 1531 1533 1537 1540 1542 1544 1549 1551 1554 1557 1559 1561 1563 1565 1566 1568 1571 1575 1576 1575 1576 1576
1523 1522 1523 1523 1520 1518 1521 1519 1521 1523 1526 1529 1530 1534 1536 1538 1541 1544 1548 1551 1553 1555 1558 1560 1560 1562 1565 1567 1571 1572 1573 1573 1574
1525 1525 1524 1522 1518 1521 1522 1522 1521 1523 1522 1515 1527 1525 1534 1534 1538 1542 1545 1548 1551 1553 1555 1558 1560 1561 1562 1564 1566 1568 1571 1571 1572
1524 1524 1524 1523 1524 1523 1521 1520 1522 1521 1523 1526 1526 1527 1524 1519 1533 1541 1545 1547 1550 1551 1551 1556 1560 1560 1559 1561 1563 1565 1568 1569 1570
1522 1523 1525 1525 1524 1520 1520 1520 1521 1524 1523 1528 1529 1531 1533 1532 1535 1539 1543 1547 1549 1550 1551 1555 1555 1557 1558 1558 1561 1563 1565 1567 1567
1523 1522 1522 1527 1524 1524 1523 1523 1525 1526 1527 1530 1533 1534 1535 1537 1539 1539 1542 1546 1548 1549 1551 1553 1554 1555 1557 1557 1558 1561 1563 1566 1566
1529 1526 1526 1530 1526 1527 1527 1530 1528 1531 1533 1536 1535 1534 1537 1537 1541 1541 1543 1545 1546 1549 1549 1549 1550 1553 1556 1559 1558 1560 1561 1563 1565
1533 1534 1534 1534 1533 1534 1533 1533 1534 1534 1536 1538 1540 1539 1541 1542 1542 1544 1544 1547 1548 1550 1550 1551 1552 1552 1553 1557 1558 1559 1561 1561 1561
1535 1537 1539 1537 1535 1536 1537 1539 1539 1539 1540 1543 1544 1544 1544 1544 1546 1544 1544 1547 1549 1550 1551 1552 1554 1554 1555 1555 1558 1556 1558 1559 1557